Weather History for Hutchinson, MN

Change the Weather History Date:

Sunday, January 12, 2014

  Actual Average Record
Temperature  
Mean Temperature 28 °F -  
Max Temperature 37 °F 21 °F 49 °F (1961)
Min Temperature 20 °F 2 °F -31 °F (1977)
Degree Days  
Heating Degree Days 36    
Moisture  
Dew Point 28 °F    
Average Humidity 85    
Maximum Humidity 93    
Minimum Humidity 77    
Precipitation  
Precipitation 0.01 in - - ()
Sea Level Pressure  
Sea Level Pressure 29.43 in    
Wind  
Wind Speed 7 mph (SW)    
Max Wind Speed 14 mph    
Max Gust Speed 16 mph    
Visibility 10 miles    
Events      
Averages and records for this station are not official NWS values.
T = Trace of Precipitation, MM = Missing Value Source: NWS Daily Summary

Daily Weather History Graph

Daily Weather History Graph

Search for Another Location

Airport:

Trip Planner

Search our weather history database for the weather conditions in past years. The results will help you decide how hot, cold, wet, or windy it might be!

Date:

Astronomy

Jan. 12, 2014 Rise Set
Actual Time 7:53 AM CST 4:59 PM CST
Civil Twilight 7:20 AM CST 5:31 PM CST
Nautical Twilight 6:43 AM CST 6:08 PM CST
Astronomical Twilight 6:08 AM CST 6:43 PM CST
Moon 2:28 PM CST (1/12) 4:51 AM CST (1/12)
Length of Visible Light 10h 11m
Length of Day
9h 05m
Waxing Gibbous, 90% of the Moon is Illuminated
Jan 12
Waxing Gibbous
Jan 15
Full
Jan 23
Last Quarter
Jan 30
New
Feb 6
First Quarter

Hourly Weather History & Observations

Time (CST) Temp. Windchill Dew Point Humidity Pressure Visibility Wind Dir Wind Speed Gust Speed Precip Events Conditions
12:13 AM 20.3 °F 12.5 °F 18.5 °F 93% 29.58 in 7.0 mi SE 5.8 mph - N/A   Scattered Clouds
12:33 AM 20.1 °F 12.3 °F 18.5 °F 93% 29.58 in 7.0 mi SE 5.8 mph - N/A   Scattered Clouds
12:54 AM 21.6 °F 12.1 °F 19.8 °F 93% 29.55 in 7.0 mi SE 8.1 mph - N/A   Scattered Clouds
1:14 AM 22.1 °F 15.9 °F 20.3 °F 93% 29.54 in 10.0 mi SE 4.6 mph - N/A   Mostly Cloudy
1:33 AM 22.6 °F 14.3 °F 20.7 °F 92% 29.53 in 10.0 mi SE 6.9 mph - N/A   Mostly Cloudy
1:53 AM 23.0 °F 14.7 °F 20.8 °F 91% 29.53 in 10.0 mi SE 6.9 mph - N/A   Scattered Clouds
2:13 AM 23.9 °F 18.0 °F 21.6 °F 91% 29.51 in 10.0 mi SSE 4.6 mph - N/A   Mostly Cloudy
2:33 AM 25.0 °F 18.1 °F 22.1 °F 89% 29.49 in 10.0 mi SSE 5.8 mph - N/A   Overcast
2:53 AM 25.9 °F 19.2 °F 22.5 °F 87% 29.48 in 10.0 mi SSE 5.8 mph - N/A   Scattered Clouds
3:13 AM 27.3 °F 17.1 °F 23.0 °F 84% 29.45 in 10.0 mi SSE 11.5 mph 16.1 mph N/A   Mostly Cloudy
3:33 AM 28.2 °F 17.7 °F 23.5 °F 83% 29.42 in 10.0 mi SE 12.7 mph - N/A   Overcast
3:53 AM 29.8 °F 22.2 °F 24.3 °F 80% 29.40 in 10.0 mi SSE 8.1 mph - N/A   Overcast
4:14 AM 30.7 °F 24.1 °F 24.4 °F 77% 29.39 in 10.0 mi SSE 6.9 mph - N/A   Scattered Clouds
4:33 AM 30.7 °F 22.6 °F 24.8 °F 79% 29.38 in 10.0 mi SSE 9.2 mph - N/A   Scattered Clouds
4:53 AM 31.3 °F 25.6 °F 25.5 °F 79% 29.37 in 10.0 mi SSE 5.8 mph - N/A   Overcast
5:14 AM 32.0 °F 26.4 °F 26.6 °F 80% 29.36 in 10.0 mi SSE 5.8 mph - N/A   Overcast
5:33 AM 32.7 °F 27.3 °F 27.3 °F 81% 29.36 in 10.0 mi SSE 5.8 mph - N/A   Overcast
5:53 AM 32.4 °F 24.6 °F 27.3 °F 82% 29.35 in 10.0 mi South 9.2 mph - N/A   Scattered Clouds
6:13 AM 32.0 °F 27.5 °F 27.1 °F 82% 29.34 in 10.0 mi South 4.6 mph - N/A   Clear
6:33 AM 31.8 °F 25.4 °F 27.0 °F 82% 29.36 in 10.0 mi South 6.9 mph - N/A   Clear
6:53 AM 30.7 °F 26.0 °F 26.4 °F 84% 29.34 in 10.0 mi SSE 4.6 mph - N/A   Clear
7:13 AM 30.9 °F 26.2 °F 26.4 °F 83% 29.34 in 10.0 mi South 4.6 mph - N/A   Clear
7:33 AM 29.8 °F 26.3 °F 26.1 °F 86% 29.33 in 10.0 mi SE 3.5 mph - N/A   Clear
7:53 AM 30.7 °F 22.6 °F 26.6 °F 85% 29.30 in 10.0 mi SE 9.2 mph - N/A   Clear
8:13 AM 30.4 °F 24.5 °F 26.4 °F 85% 29.34 in 10.0 mi South 5.8 mph - N/A   Clear
8:33 AM 30.2 °F - 26.1 °F 85% 29.35 in 10.0 mi Calm Calm - N/A   Clear
8:52 AM 28.8 °F 23.7 °F 25.7 °F 88% 29.33 in 10.0 mi SE 4.6 mph - N/A   Clear
9:13 AM 30.7 °F 26.0 °F 26.6 °F 85% 29.35 in 10.0 mi SSW 4.6 mph - N/A   Clear
9:33 AM 31.8 °F 26.2 °F 27.1 °F 83% 29.37 in 10.0 mi SW 5.8 mph - N/A   Clear
9:53 AM 32.7 °F 26.4 °F 28.0 °F 83% 29.37 in 10.0 mi WSW 6.9 mph - N/A   Clear
10:14 AM 34.0 °F 29.8 °F 28.4 °F 80% 29.37 in 10.0 mi WSW 4.6 mph - N/A   Clear
10:33 AM 34.0 °F 28.8 °F 29.1 °F 82% - 10.0 mi WSW 5.8 mph - N/A   Scattered Clouds
10:53 AM 34.3 °F 28.4 °F 29.7 °F 83% 29.37 in 10.0 mi WSW 6.9 mph - 0.01 in   Scattered Clouds
11:13 AM 34.9 °F 27.7 °F 30.2 °F 83% 29.37 in 10.0 mi West 9.2 mph - N/A   Scattered Clouds
11:34 AM 34.9 °F 28.3 °F 30.6 °F 84% 29.37 in 10.0 mi West 8.1 mph - N/A   Clear
11:53 AM 35.2 °F 28.8 °F 30.6 °F 83% 29.37 in 10.0 mi West 8.1 mph - N/A   Clear
12:13 PM 36.5 °F 30.3 °F 31.1 °F 81% 29.36 in 10.0 mi West 8.1 mph - N/A   Clear
12:33 PM 37.0 °F 31.6 °F 31.6 °F 81% 29.37 in 10.0 mi West 6.9 mph - N/A   Clear
12:53 PM 37.6 °F 33.1 °F 32.0 °F 80% 29.37 in 10.0 mi West 5.8 mph - N/A   Clear
1:14 PM 37.8 °F 33.3 °F 32.0 °F 80% 29.37 in 10.0 mi West 5.8 mph - N/A   Clear
1:34 PM 36.9 °F 31.4 °F 32.4 °F 84% 29.37 in 10.0 mi West 6.9 mph - N/A   Clear
1:53 PM 37.4 °F 30.8 °F 32.5 °F 83% 29.38 in 10.0 mi West 9.2 mph - N/A   Clear
2:13 PM 37.0 °F 31.0 °F 32.4 °F 83% 29.38 in 10.0 mi West 8.1 mph - N/A   Clear
2:33 PM 36.7 °F 32.0 °F 32.5 °F 85% 29.40 in 10.0 mi WSW 5.8 mph - N/A   Clear
2:53 PM 37.4 °F 33.8 °F 32.5 °F 83% 29.41 in 10.0 mi WSW 4.6 mph - N/A   Clear
3:13 PM 36.0 °F 31.1 °F 32.5 °F 87% 29.40 in 10.0 mi West 5.8 mph - N/A   Clear
3:33 PM 36.5 °F 31.0 °F 32.5 °F 86% 29.42 in 10.0 mi WSW 6.9 mph - N/A   Clear
3:53 PM 36.7 °F 30.5 °F 32.4 °F 84% 29.43 in 10.0 mi WSW 8.1 mph - N/A   Clear
4:13 PM 36.7 °F 29.9 °F 32.4 °F 84% 29.44 in 10.0 mi West 9.2 mph - N/A   Clear
4:33 PM 36.5 °F 29.7 °F 32.2 °F 84% 29.45 in 10.0 mi West 9.2 mph - N/A   Clear
4:53 PM 36.9 °F 30.7 °F 32.2 °F 83% 29.46 in 10.0 mi WSW 8.1 mph - N/A   Clear
5:13 PM 36.3 °F 29.5 °F 32.0 °F 84% 29.46 in 10.0 mi West 9.2 mph - N/A   Clear
5:33 PM 36.5 °F 30.3 °F 32.0 °F 84% 29.46 in 10.0 mi West 8.1 mph - N/A   Clear
5:53 PM 36.1 °F 29.9 °F 32.0 °F 85% 29.47 in 10.0 mi West 8.1 mph - N/A   Clear
6:12 PM 36.3 °F 29.5 °F 32.0 °F 84% 29.47 in 10.0 mi West 9.2 mph - N/A   Clear
6:33 PM 35.8 °F 28.8 °F 31.8 °F 86% 29.48 in 10.0 mi West 9.2 mph - N/A   Clear
6:53 PM 35.4 °F 27.8 °F 31.6 °F 86% 29.49 in 10.0 mi West 10.4 mph - N/A   Clear
7:13 PM 35.6 °F 29.9 °F 31.3 °F 84% 29.50 in 10.0 mi WSW 6.9 mph - N/A   Clear
7:33 PM 34.5 °F 29.4 °F 31.5 °F 89% 29.49 in 10.0 mi WSW 5.8 mph - N/A   Clear
7:53 PM 35.4 °F 29.7 °F 31.1 °F 84% 29.50 in 10.0 mi WSW 6.9 mph - N/A   Clear
8:13 PM 33.3 °F 26.4 °F 30.9 °F 91% 29.51 in 10.0 mi West 8.1 mph - N/A   Clear
8:33 PM 32.9 °F 25.9 °F 30.6 °F 91% 29.52 in 10.0 mi West 8.1 mph - N/A   Clear
8:53 PM 34.0 °F 27.2 °F 30.9 °F 89% 29.52 in 10.0 mi WSW 8.1 mph - N/A   Clear
9:13 PM 35.2 °F 28.8 °F 31.1 °F 85% 29.53 in 10.0 mi WSW 8.1 mph - N/A   Clear
9:33 PM 34.9 °F 28.3 °F 30.9 °F 85% 29.52 in 10.0 mi SW 8.1 mph - N/A   Clear
9:53 PM 33.6 °F 26.2 °F 30.6 °F 89% 29.52 in 10.0 mi West 9.2 mph - N/A   Clear
10:13 PM 33.8 °F 26.4 °F 30.6 °F 88% 29.51 in 10.0 mi WSW 9.2 mph - N/A   Clear
10:33 PM 34.7 °F 27.5 °F 30.7 °F 85% 29.50 in 10.0 mi WSW 9.2 mph - N/A   Clear
10:54 PM 33.6 °F 24.1 °F 30.2 °F 87% 29.52 in 10.0 mi West 13.8 mph - N/A   Clear
11:13 PM 33.8 °F 24.3 °F 30.4 °F 87% 29.52 in 10.0 mi West 13.8 mph - N/A   Clear
11:33 PM 33.1 °F 24.4 °F 30.0 °F 89% 29.52 in 10.0 mi West 11.5 mph - N/A   Clear
11:53 PM 32.9 °F 24.7 °F 29.5 °F 87% 29.51 in 10.0 mi West 10.4 mph - N/A   Clear